Satellite-Ground Cal/Val Region Overpasses Predictions

Prediction of Satellite NPP Overpassing Cal/Val Region: PacNW

Region Location: (Latitude: 10.00, Longitude: 139.50) to (Latitude: 22.70, Longitude: 165.60).

Table of predicted overpasses for the next 14.0 days since TLE Epoch: 9/25/2015
Interval Starting Time Starting Location Ending Time Ending Location
1 09/25/2015 14:55:13 ( 22.65, 161.91) 09/25/2015 14:58:48 ( 10.03, 158.92)
2 09/26/2015 03:45:48 ( 10.05, 144.09) 09/26/2015 03:49:23 ( 22.67, 141.09)
3 09/26/2015 14:37:25 ( 18.25, 165.59) 09/26/2015 14:39:45 ( 10.02, 163.68)
4 09/26/2015 16:17:39 ( 22.69, 141.31) 09/26/2015 16:19:46 ( 15.24, 139.51)
5 09/27/2015 03:26:44 ( 10.01, 148.85) 09/27/2015 03:30:20 ( 22.69, 145.84)
6 09/27/2015 15:58:37 ( 22.66, 146.06) 09/27/2015 16:02:12 ( 10.04, 143.06)
7 09/28/2015 03:07:42 ( 10.05, 153.60) 09/28/2015 03:11:17 ( 22.68, 150.61)
8 09/28/2015 15:39:33 ( 22.67, 150.82) 09/28/2015 15:43:08 ( 10.04, 147.82)
9 09/29/2015 02:48:37 ( 10.00, 158.37) 09/29/2015 02:52:13 ( 22.68, 155.37)
10 09/29/2015 15:20:30 ( 22.65, 155.57) 09/29/2015 15:24:05 ( 10.02, 152.58)
11 09/30/2015 02:29:34 ( 10.03, 163.13) 09/30/2015 02:33:09 ( 22.66, 160.14)
12 09/30/2015 15:01:26 ( 22.66, 160.34) 09/30/2015 15:05:01 ( 10.04, 157.35)
13 10/01/2015 02:13:16 ( 19.84, 165.59) 10/01/2015 02:14:04 ( 22.65, 164.90)
14 10/01/2015 03:51:59 ( 10.05, 142.52) 10/01/2015 03:55:34 ( 22.67, 139.52)
15 10/01/2015 14:42:21 ( 22.65, 165.10) 10/01/2015 14:45:56 ( 10.03, 162.11)
16 10/01/2015 16:23:50 ( 22.69, 139.74) 10/01/2015 16:24:06 ( 21.76, 139.51)
17 10/02/2015 03:32:54 ( 10.01, 147.29) 10/02/2015 03:36:30 ( 22.69, 144.28)
18 10/02/2015 16:04:46 ( 22.66, 144.50) 10/02/2015 16:08:21 ( 10.04, 141.51)
19 10/03/2015 03:13:49 ( 10.05, 152.05) 10/03/2015 03:17:24 ( 22.68, 149.05)
20 10/03/2015 15:45:40 ( 22.66, 149.27) 10/03/2015 15:49:15 ( 10.04, 146.27)
21 10/04/2015 02:54:43 ( 10.00, 156.83) 10/04/2015 02:58:19 ( 22.69, 153.82)
22 10/04/2015 15:26:34 ( 22.70, 154.05) 10/04/2015 15:30:10 ( 10.02, 151.04)
23
